Vorticity
11 5 -7 8 8 5 -9 -7 -10 22 -3 4 8 4 7 -0 4 7 5 11 6 1 7 7 11 42 9 -1 14 8 -2 17 -10 8 34 0 0 18 15 4 -5 -34 10 -4
19 5 -2 7 10 7 3 3 4 7 -4 16 2 19 11 2 7 20 15 6 -1 6 7 8 10 15 40 9 9 19 -1 -13 7 -5 -0 38 14 24 10 -21 12 -9 6 31
9 -8 56 6 6 2 7 1 6 5 -1 -9 15 13 15 4 6 10 -0 13 6 -1 2 7 6 9 13 33 19 18 3 2 10 -7 23 10 11 18 -5 -11 38 4 6 22
27 17 -16 14 28 7 2 7 2 9 -1 9 -19 -7 -4 12 8 32 16 16 13 7 4 7 4 9 8 7 11 21 25 20 3 9 6 -4 6 18 16 20 3 5 20 8
-6 15 25 0 -3 40 15 3 11 8 9 11 15 23 12 -4 -1 27 -0 -1 16 6 4 7 1 8 9 8 6 6 8 16 29 34 38 27 11 6 6 17 27 25 21 16
4 -9 3 19 44 -35 2 29 5 4 -3 45 10 1 35 2 19 27 19 21 24 5 7 2 2 6 6 8 8 6 5 5 6 9 9 12 17 21 20 21 28 23 15 11
-9 -2 2 -1 -10 29 23 -11 16 24 16 -2 27 32 -21 -3 8 16 15 15 18 10 6 8 9 8 12 7 7 6 7 4 6 6 6 8 8 9 12 13 11 9 10 8
45 70 15 -25 6 -23 36 9 -38 6 7 -1 33 13 -5 2 1 15 11 3 15 11 6 3 -1 3 3 11 7 5 7 4 5 4 4 5 6 6 8 8 7 5 5 6
16 22 18 41 37 5 12 28 20 -28 -10 11 1 11 -1 -10 24 10 10 21 12 8 8 9 1 -0 5 1 5 11 4 4 5 7 2 2 2 6 7 5 5 6 6 6
29 26 -13 -9 17 15 24 16 -12 26 8 8 19 16 -15 -4 -10 18 18 24 10 7 16 7 8 8 5 4 3 4 11 14 2 3 4 5 3 2 4 4 4 4 5 4
6 16 12 12 17 18 26 15 -16 24 -6 -12 7 12 6 21 34 0 15 8 6 6 11 15 16 3 12 7 7 8 2 4 17 9 3 -1 0 3 4 4 4 5 5 6
-2 10 7 32 -5 -26 31 22 17 -25 2 11 8 17 -31 -26 38 4 15 14 -1 3 13 -2 6 10 6 21 2 16 18 15 6 17 -5 5 4 10 1 3 4 4 4 6
-0 -5 12 36 51 29 15 -2 -13 46 -16 17 -35 -26 23 14 -36 17 10 4 11 10 3 1 -1 13 8 13 3 15 21 18 18 19 28 3 7 13 15 11 7 8 6 7
11 22 -3 -30 -28 -40 -7 42 -3 -3 13 20 -17 -12 -4 -3 7 3 19 11 9 12 -2 1 -5 7 7 14 0 9 9 11 12 8 19 31 27 21 17 14 13 8 15 13
19 4 13 -0 -3 23 21 7 36 10 4 -4 21 19 5 -2 6 5 16 -6 21 16 -10 7 -0 5 6 10 2 -1 7 -0 3 5 7 9 5 8 12 10 8 7 11 13
-1 18 23 27 -0 51 18 8 0 42 18 3 -5 23 -1 14 19 6 20 -17 10 7 8 12 16 3 5 10 14 4 3 4 2 7 5 8 4 10 6 10 11 12 10 6
-13 18 27 19 23 46 71 19 6 1 -12 -0 2 -9 24 18 12 6 34 18 8 12 -17 3 13 17 6 15 10 4 4 8 6 3 4 4 8 5 -1 9 7 4 6 10
3 -14 13 -7 26 25 4 66 40 3 6 6 -1 3 -5 5 19 7 11 6 -2 13 22 18 13 12 4 9 7 9 7 5 6 5 8 9 4 8 4 8 4 7 6 7
13 7 -13 2 -6 -16 49 20 13 35 21 29 21 10 1 -8 12 21 19 14 13 21 25 19 4 8 5 7 5 3 1 11 8 6 8 9 9 -0 12 5 4 6 7 8
28 9 -11 10 0 1 -38 28 14 -1 6 -2 22 28 49 5 8 19 0 18 30 -6 18 9 21 1 3 9 5 4 13 17 21 23 11 9 5 8 8 6 5 10 13 11
30 9 3 10 -0 12 9 49 10 12 -9 30 54 9 -2 2 45 -19 24 12 15 17 13 10 5 7 7 6 8 16 15 12 14 15 17 12 12 10 10 10 15 11 6 6
-7 8 60 15 7 19 10 43 15 17 12 7 -2 43 25 30 -1 -4 -14 31 10 17 14 14 9 9 4 10 11 7 9 10 11 12 12 12 12 12 12 12 9 7 8 9
23 -10 -21 -1 -12 -11 3 8 -3 3 17 25 20 8 15 33 -11 14 5 -4 24 7 2 15 6 7 8 10 8 8 10 11 12 13 13 13 12 12 11 9 9 11 11 11
14 12 11 -6 28 3 6 13 -5 8 -4 -4 26 -0 27 -0 46 -4 53 4 28 19 12 6 6 4 8 11 9 9 4 4 6 5 6 7 9 10 12 12 11 8 4 9
3 1 16 29 -8 38 -4 -6 -3 32 14 25 6 4 20 5 11 30 23 27 14 12 17 8 6 9 8 6 6 1 6 10 7 7 6 6 8 10 10 10 10 11 8 8
-3 11 12 14 -25 19 9 9 6 23 7 44 14 4 38 -4 20 23 14 21 -8 2 13 5 4 5 12 10 3 6 7 8 8 8 9 12 16 17 18 16 13 10 10 9
Height
3065 3064 3061 3066 3069 3072 3074 3075 3076 3076 3078 3077 3076 3073 3072 3073 3072 3071 3069 3068 3067 3066 3065 3060 3055 3049 3050 3053 3055 3058 3059 3062 3065 3069 3072 3075 3080 3085 3089 3097 3102 3104 3109 3115
3059 3051 3061 3064 3067 3070 3070 3072 3071 3073 3076 3074 3073 3069 3069 3068 3069 3068 3067 3066 3065 3065 3064 3061 3056 3053 3050 3051 3054 3057 3059 3059 3065 3067 3069 3071 3076 3081 3089 3092 3098 3104 3107 3110
3050 3053 3057 3059 3061 3066 3065 3066 3067 3070 3071 3070 3068 3065 3064 3064 3065 3066 3065 3063 3062 3063 3063 3061 3058 3056 3054 3052 3053 3054 3058 3061 3063 3066 3069 3072 3076 3078 3086 3088 3093 3098 3102 3106
3045 3048 3053 3053 3055 3061 3060 3062 3066 3067 3068 3069 3066 3061 3061 3061 3060 3061 3061 3060 3060 3060 3062 3061 3061 3059 3057 3056 3055 3054 3056 3057 3061 3063 3066 3071 3074 3077 3083 3088 3090 3094 3099 3104
3036 3041 3046 3048 3051 3054 3056 3059 3062 3064 3063 3063 3062 3063 3053 3055 3055 3056 3057 3058 3057 3059 3061 3061 3060 3061 3060 3060 3058 3059 3060 3060 3060 3062 3064 3069 3074 3078 3082 3085 3087 3092 3097 3102
3035 3039 3041 3042 3047 3050 3055 3057 3059 3059 3060 3055 3055 3058 3049 3050 3050 3049 3052 3053 3054 3055 3058 3060 3060 3062 3062 3062 3062 3062 3063 3064 3065 3066 3068 3071 3075 3077 3080 3083 3086 3091 3096 3099
3033 3031 3035 3039 3043 3045 3050 3054 3056 3057 3056 3048 3049 3051 3045 3046 3047 3047 3048 3050 3051 3053 3055 3057 3059 3060 3062 3064 3064 3064 3065 3066 3067 3068 3071 3074 3077 3079 3081 3084 3087 3091 3095 3098
3024 3024 3028 3031 3035 3040 3041 3045 3047 3051 3051 3046 3045 3041 3041 3044 3043 3043 3044 3046 3048 3049 3052 3054 3056 3059 3060 3061 3063 3065 3068 3067 3069 3070 3072 3075 3078 3080 3083 3085 3088 3092 3095 3097
3022 3018 3020 3023 3029 3036 3037 3038 3045 3044 3044 3045 3039 3036 3038 3039 3039 3040 3040 3042 3045 3047 3049 3052 3054 3056 3058 3060 3062 3064 3065 3067 3070 3072 3072 3076 3078 3080 3083 3084 3087 3089 3091 3094
3019 3017 3019 3022 3024 3026 3028 3036 3039 3039 3041 3042 3034 3033 3034 3037 3036 3038 3038 3039 3041 3044 3046 3049 3051 3053 3055 3057 3058 3060 3062 3065 3068 3069 3071 3074 3075 3077 3078 3079 3083 3084 3087 3089
3017 3017 3017 3018 3017 3020 3023 3024 3029 3031 3031 3029 3032 3028 3032 3034 3033 3036 3037 3039 3040 3041 3043 3046 3049 3051 3052 3053 3055 3056 3057 3059 3061 3064 3068 3070 3072 3074 3075 3076 3078 3080 3081 3082
3016 3014 3011 3010 3014 3016 3018 3019 3022 3024 3023 3024 3024 3022 3028 3031 3031 3032 3034 3037 3039 3040 3041 3043 3046 3048 3049 3050 3050 3051 3052 3054 3057 3060 3062 3065 3065 3067 3068 3070 3073 3074 3076 3077
3014 3012 3009 3005 3009 3010 3012 3014 3017 3019 3021 3015 3022 3016 3025 3028 3030 3031 3032 3034 3036 3038 3038 3041 3043 3045 3047 3048 3049 3049 3049 3050 3053 3055 3057 3060 3060 3061 3063 3065 3066 3067 3068 3069
3012 3009 3010 3009 3007 3008 3006 3007 3010 3013 3012 3009 3005 3014 3021 3024 3026 3029 3030 3031 3034 3035 3036 3038 3040 3042 3044 3045 3046 3047 3048 3049 3051 3052 3054 3055 3056 3057 3058 3059 3059 3060 3060 3060
3007 3001 3004 3003 3004 3004 2996 2998 3001 3001 3001 3004 3005 3009 3015 3019 3021 3024 3026 3027 3029 3031 3032 3034 3037 3039 3040 3041 3042 3043 3044 3045 3047 3047 3048 3049 3049 3049 3050 3051 3052 3053 3052 3052
3000 2996 2997 2995 2997 2995 2991 2991 2993 2993 2994 2997 3000 3002 3008 3012 3015 3017 3019 3021 3023 3025 3027 3029 3031 3033 3035 3036 3037 3038 3039 3040 3040 3041 3042 3043 3043 3043 3043 3043 3043 3043 3044 3043
2995 2994 2992 2986 2990 2987 2984 2974 2981 2986 2989 2991 2994 2999 3001 3004 3007 3011 3013 3014 3016 3018 3021 3022 3024 3026 3029 3030 3031 3032 3033 3034 3034 3034 3035 3036 3036 3036 3036 3036 3035 3035 3035 3034
2990 2990 2991 2987 2986 2984 2973 2974 2974 2978 2981 2985 2987 2991 2996 2997 2999 3002 3006 3007 3009 3011 3013 3016 3018 3020 3023 3024 3025 3026 3027 3027 3027 3028 3028 3029 3028 3028 3028 3028 3028 3027 3026 3025
2983 2988 2988 2987 2986 2980 2974 2973 2973 2971 2971 2977 2979 2984 2989 2992 2992 2994 2997 3000 3002 3005 3006 3009 3012 3014 3017 3018 3019 3020 3020 3020 3019 3019 3020 3021 3020 3020 3020 3020 3019 3018 3017 3016
2976 2981 2985 2983 2984 2979 2972 2969 2970 2970 2965 2971 2971 2972 2977 2985 2986 2988 2991 2992 2995 2999 3001 3004 3006 3008 3010 3012 3013 3013 3012 3011 3011 3011 3012 3012 3012 3012 3012 3012 3012 3011 3010 3008
2970 2974 2974 2977 2977 2970 2969 2966 2965 2968 2971 2965 2963 2966 2971 2975 2979 2986 2987 2989 2991 2993 2995 2997 3000 3002 3005 3006 3007 3006 3005 3005 3004 3004 3005 3006 3006 3006 3006 3005 3004 3003 3002 3000
2969 2964 2963 2966 2966 2968 2965 2961 2964 2964 2962 2962 2963 2964 2967 2971 2974 2979 2982 2984 2987 2989 2991 2992 2994 2997 2999 3000 3000 3000 3000 2999 2999 2999 2999 2999 2999 2999 2998 2997 2996 2994 2993 2991
2966 2965 2964 2964 2959 2960 2961 2961 2962 2961 2960 2958 2959 2963 2965 2966 2970 2973 2973 2978 2982 2985 2988 2990 2991 2992 2993 2994 2994 2994 2994 2993 2993 2993 2993 2992 2992 2991 2990 2989 2987 2986 2985 2983
2961 2961 2959 2961 2957 2957 2959 2960 2958 2957 2956 2956 2956 2959 2961 2964 2967 2969 2971 2973 2976 2979 2981 2984 2986 2986 2988 2988 2987 2987 2987 2987 2986 2985 2985 2984 2983 2981 2980 2979 2977 2976 2975 2973
2954 2953 2955 2955 2952 2955 2957 2958 2956 2954 2954 2952 2954 2953 2957 2958 2958 2962 2966 2969 2972 2975 2977 2980 2981 2980 2982 2982 2982 2981 2980 2979 2979 2978 2976 2975 2973 2972 2970 2969 2968 2967 2965 2965
2947 2945 2948 2948 2950 2949 2953 2954 2954 2951 2952 2952 2950 2950 2953 2953 2956 2958 2963 2965 2966 2969 2972 2973 2975 2975 2975 2975 2975 2975 2975 2974 2972 2971 2969 2968 2966 2964 2962 2961 2960 2959 2958 2957